Location: ?????
(31.8092°N, 35.2590°E)
Time: 17:33:53
(UTC+00:00)

N. Korean satellite - Pass Details

Date: 27 September 2021
Orbit: 450 x 495 km, 97.3° (Epoch: 15 October)

Event Time Altitude Azimuth Distance (km) Brightness Sun altitude
Rises 02:37:44 0° 15° (NNE) 2,537 10.5 -12.0°
Reaches altitude 10° 02:39:49 10° 20° (NNE) 1,662 9.6 -11.5°
Maximum altitude 02:43:21 59° 100° (E) 564 7.2 -10.8°
Drops below altitude 10° 02:46:54 10° 181° (S) 1,673 9.2 -10.0°
Sets 02:49:00 0° 185° (S) 2,555 10.1 -9.6°
